Location: Rounton
(54.4000°N, 1.3500°W)
Time: 06:40:05
(UTC+01:00)

deb Agena D - Pass Details

Date: 13 June 2023
Orbit: 996 x 1023 km, 100.1° (Epoch: 29 September)

Event Time Altitude Azimuth Distance (km) Brightness Sun altitude
Exits shadow 00:37:21 12° 146° (SE) 2,628 ? -12.2°
Maximum altitude 00:43:08 68° 66° (ENE) 1,076 ? -12.3°
Drops below altitude 10° 00:49:19 10° 345° (NNW) 2,779 ? -12.3°
Sets 00:51:48 0° 343° (NNW) 3,731 ? -12.4°
